Overview Statistics Trail Chart Weather Telemetry Raw packets
 

This is the latest recevied weather packets stored in our database for station/object VO2AGO. If no packets are shown the sender has not sent any weather packets the latest 10 day(s).

<< 31 32 33 34 35 36 37 >>
Time Temp. Humidity Pressure Rain* Wind** Luminosity Snow
1777805451 0° C - - - 0 m/s 256 W/m² -
1777805001 0° C - - - 0 m/s 294 W/m² -
1777804565 0° C - - - 0 m/s 291 W/m² -
1777804100 0° C - - - 0 m/s 228 W/m² -
1777803650 0° C - - - 0 m/s 219 W/m² -
1777803200 0° C - - - 0 m/s 236 W/m² -
1777802750 0° C - - - 0 m/s 122 W/m² -
1777802301 0° C - - - 0 m/s 171 W/m² -
1777801851 -0.56° C - - - 0 m/s 171 W/m² -
1777801400 -0.56° C - - - 0 m/s 116 W/m² -
1777800951 -0.56° C - - - 0 m/s 96 W/m² -
1777800500 -0.56° C - - - 0 m/s 94 W/m² -
1777800051 -1.11° C - - - 0 m/s 69 W/m² -
1777799600 -1.11° C - - - 0 m/s 52 W/m² -
1777799152 -1.11° C - - - 0 m/s 33 W/m² -
1777798700 -1.11° C - - - 0 m/s 22 W/m² -
1777798250 -1.67° C - - - 0 m/s 12 W/m² -
1777797800 -1.67° C - - - 0 m/s 7 W/m² -
1777797350 -1.67° C - - - 0 m/s 3 W/m² -
1777796900 -1.11° C - - - 0 m/s 1 W/m² -
1777796451 -1.11° C - - - 0 m/s 0 W/m² -
1777796001 -1.11° C - - - 0 m/s 0 W/m² -
1777795550 -0.56° C - - - 0 m/s 0 W/m² -
1777795101 -0.56° C - - - 0 m/s 0 W/m² -
1777794650 -0.56° C - - - 0 m/s 0 W/m² -

* Rain since midnight (hover to see other rain measurements)
** Current wind speed in m/s (hover to see current wind gust speed)